�������l�o���
Date,Time,MP-1(��Sv/h),MP-2(��Sv/h),MP-3(��Sv/h),MP-4(��Sv/h),MP-5(��Sv/h),MP-6(��Sv/h),MP-7(��Sv/h),MP-8(��Sv/h),����,����(m/s),���J
2016/10/02,00:00,1.129,1.876,1.342,2.052,1.433,0.598,1.056,0.979,�k��,3.1,��
2016/10/02,00:10,1.131,1.873,1.342,2.053,1.435,0.598,1.056,0.979,�k��,3.8,��
2016/10/02,00:20,1.129,1.878,1.340,2.052,1.436,0.599,1.055,0.979,�k��,3.5,��
2016/10/02,00:30,1.130,1.876,1.343,2.050,1.434,0.598,1.056,0.979,�k��,2.6,��
2016/10/02,00:40,1.132,1.876,1.342,2.050,1.435,0.599,1.056,0.977,�k��,2.8,��
2016/10/02,00:50,1.129,1.877,1.343,2.048,1.434,0.596,1.055,0.979,�k�k��,2.6,��
2016/10/02,01:00,1.130,1.877,1.340,2.049,1.436,0.597,1.056,0.979,�k�k��,1.7,��
2016/10/02,01:10,1.128,1.875,1.341,2.049,1.435,0.599,1.057,0.979,�k��,1.6,��
2016/10/02,01:20,1.131,1.875,1.342,2.049,1.437,0.596,1.056,0.979,���k��,1.7,��
2016/10/02,01:30,1.130,1.876,1.344,2.050,1.436,0.597,1.055,0.978,���k��,1.2,��
2016/10/02,01:40,1.129,1.870,1.344,2.049,1.433,0.598,1.056,0.978,�k��,1.3,��
2016/10/02,01:50,1.131,1.874,1.342,2.053,1.436,0.598,1.056,0.978,�k�k��,1.5,��
2016/10/02,02:00,1.129,1.874,1.344,2.053,1.435,0.599,1.055,0.981,�k�k��,1.7,��
2016/10/02,02:10,1.128,1.876,1.343,2.053,1.436,0.597,1.060,0.977,�k��,2.4,��
2016/10/02,02:20,1.130,1.875,1.340,2.051,1.438,0.597,1.058,0.978,�k��,1.5,��
2016/10/02,02:30,1.129,1.875,1.341,2.049,1.437,0.597,1.058,0.978,��,0.6,��
2016/10/02,02:40,1.131,1.874,1.343,2.052,1.435,0.599,1.058,0.979,���k��,0.8,��
2016/10/02,02:50,1.128,1.875,1.341,2.053,1.435,0.598,1.058,0.978,���쐼,0.5,��
2016/10/02,03:00,1.128,1.876,1.341,2.052,1.436,0.598,1.059,0.978,�k��,1.7,��
2016/10/02,03:10,1.129,1.874,1.343,2.051,1.436,0.596,1.056,0.980,�k�k��,1.4,��
2016/10/02,03:20,1.127,1.877,1.340,2.051,1.435,0.597,1.057,0.978,�k�k��,2.5,��
2016/10/02,03:30,1.128,1.875,1.343,2.054,1.435,0.597,1.058,0.979,�k�k��,2.8,��
2016/10/02,03:40,1.130,1.876,1.343,2.051,1.437,0.597,1.058,0.979,�k��,4.1,��
2016/10/02,03:50,1.130,1.872,1.343,2.049,1.433,0.596,1.059,0.979,�k�k��,3.5,��
2016/10/02,04:00,1.130,1.874,1.341,2.050,1.437,0.598,1.056,0.977,�k�k��,3.5,��
2016/10/02,04:10,1.129,1.875,1.342,2.050,1.434,0.599,1.059,0.980,�k��,3.9,��
2016/10/02,04:20,1.130,1.875,1.342,2.051,1.438,0.598,1.059,0.978,�k�k��,3.5,��
2016/10/02,04:30,1.129,1.876,1.344,2.048,1.434,0.598,1.058,0.978,�k�k��,3.1,��
2016/10/02,04:40,1.130,1.875,1.341,2.052,1.434,0.597,1.058,0.980,�k�k��,3.5,��
2016/10/02,04:50,1.130,1.875,1.343,2.050,1.437,0.598,1.057,0.979,�k�k��,4.1,��
2016/10/02,05:00,1.129,1.876,1.340,2.052,1.435,0.599,1.059,0.982,�k�k��,4.4,��
2016/10/02,05:10,1.130,1.878,1.341,2.050,1.436,0.597,1.061,0.979,�k�k��,5.0,��
2016/10/02,05:20,1.128,1.873,1.343,2.053,1.437,0.599,1.059,0.980,�k�k��,5.8,��
2016/10/02,05:30,1.129,1.874,1.343,2.052,1.436,0.597,1.058,0.978,�k�k��,4.7,��
2016/10/02,05:40,1.128,1.877,1.342,2.050,1.435,0.598,1.060,0.979,�k�k��,4.4,��
2016/10/02,05:50,1.129,1.876,1.342,2.052,1.436,0.597,1.058,0.980,�k�k��,4.7,��
2016/10/02,06:00,1.129,1.876,1.341,2.051,1.439,0.599,1.059,0.978,�k�k��,4.5,��
2016/10/02,06:10,1.130,1.875,1.342,2.051,1.437,0.597,1.058,0.980,�k�k��,3.8,��
2016/10/02,06:20,1.129,1.875,1.339,2.051,1.436,0.598,1.058,0.978,�k��,3.1,��
2016/10/02,06:30,1.130,1.879,1.343,2.050,1.436,0.599,1.057,0.979,�k�k��,2.1,��
2016/10/02,06:40,1.131,1.876,1.342,2.055,1.434,0.597,1.057,0.979,�k��,2.4,��
2016/10/02,06:50,1.130,1.879,1.342,2.051,1.438,0.598,1.059,0.980,�k��,2.4,��
2016/10/02,07:00,1.129,1.875,1.343,2.054,1.439,0.598,1.059,0.980,�k��,1.8,��
2016/10/02,07:10,1.130,1.878,1.344,2.055,1.434,0.597,1.057,0.980,�k��,1.2,��
2016/10/02,07:20,1.129,1.877,1.343,2.050,1.435,0.597,1.057,0.977,�k�k��,2.6,��
2016/10/02,07:30,1.130,1.880,1.344,2.053,1.433,0.598,1.056,0.978,�k�k��,3.2,��
2016/10/02,07:40,1.132,1.882,1.344,2.055,1.435,0.596,1.059,0.980,�k�k��,2.8,��
2016/10/02,07:50,1.129,1.879,1.342,2.056,1.436,0.596,1.058,0.980,�k�k��,3.1,��
2016/10/02,08:00,1.130,1.880,1.344,2.055,1.436,0.597,1.058,0.981,�k,3.6,��
2016/10/02,08:10,1.129,1.879,1.342,2.058,1.438,0.595,1.057,0.977,�k�k��,4.4,��
2016/10/02,08:20,1.130,1.877,1.345,2.058,1.438,0.595,1.059,0.977,�k,4.1,��
2016/10/02,08:30,1.129,1.878,1.346,2.057,1.437,0.595,1.058,0.978,�k,3.5,��
2016/10/02,08:40,1.130,1.878,1.343,2.059,1.438,0.596,1.059,0.980,�k�k��,5.0,��
2016/10/02,08:50,1.129,1.877,1.346,2.058,1.437,0.596,1.057,0.980,�k�k��,4.7,��
2016/10/02,09:00,1.129,1.877,1.345,2.057,1.438,0.596,1.058,0.976,�k�k��,5.5,��
2016/10/02,09:10,1.130,1.879,1.343,2.057,1.440,0.595,1.057,0.979,�k,5.2,��
2016/10/02,09:20,1.132,1.875,1.343,2.057,1.437,0.596,1.058,0.977,�k�k��,5.5,��
2016/10/02,09:30,1.130,1.876,1.344,2.057,1.439,0.596,1.057,0.978,�k,6.1,��
2016/10/02,09:40,1.132,1.878,1.342,2.056,1.442,0.590,1.059,0.975,�k�k��,5.6,��
2016/10/02,09:50,1.130,1.881,1.342,2.055,1.441,0.588,1.060,0.977,�k,6.0,��
2016/10/02,10:00,1.131,1.881,1.347,2.057,1.442,0.581,1.059,0.978,�k�k��,5.5,��
2016/10/02,10:10,1.131,1.880,1.346,2.055,1.442,0.596,1.060,0.978,�k,5.3,��
2016/10/02,10:20,1.131,1.879,1.347,2.061,1.444,0.595,1.060,0.976,�k�k��,6.1,��
2016/10/02,10:30,1.133,1.879,1.344,2.059,1.441,0.597,1.057,0.977,�k�k��,6.0,��
2016/10/02,10:40,1.134,1.883,1.348,2.056,1.442,0.596,1.062,0.976,�k�k��,5.6,��
2016/10/02,10:50,1.134,1.883,1.347,2.057,1.442,0.597,1.061,0.978,�k�k��,4.9,��
2016/10/02,11:00,1.133,1.884,1.348,2.062,1.444,0.596,1.059,0.978,�k�k��,4.9,��
2016/10/02,11:10,1.136,1.883,1.346,2.061,1.444,0.596,1.056,0.979,�k�k��,4.6,��
2016/10/02,11:20,1.133,1.883,1.348,2.063,1.443,0.587,1.061,0.977,�k�k��,4.2,��
2016/10/02,11:30,1.135,1.881,1.349,2.063,1.444,0.597,1.059,0.979,�k��,3.6,��
2016/10/02,11:40,1.137,1.888,1.348,2.060,1.447,0.598,1.060,0.977,�k,3.8,��
2016/10/02,11:50,1.136,1.883,1.350,2.064,1.446,0.596,1.061,0.979,�k��,2.7,��
2016/10/02,12:00,1.136,1.886,1.348,2.062,1.449,0.597,1.060,0.979,�k��,2.5,��
2016/10/02,12:10,1.138,1.886,1.348,2.064,1.446,0.596,1.061,0.978,�k��,2.9,��
2016/10/02,12:20,1.135,1.886,1.350,2.065,1.450,0.599,1.059,0.978,���k��,3.0,��
2016/10/02,12:30,1.138,1.885,1.351,2.066,1.450,0.595,1.063,0.977,�k��,3.2,��
2016/10/02,12:40,1.137,1.884,1.354,2.064,1.448,0.598,1.062,0.980,�k�k��,3.2,��
2016/10/02,12:50,1.136,1.887,1.351,2.066,1.451,0.597,1.062,0.978,���k��,2.6,��
2016/10/02,13:00,1.137,1.891,1.353,2.063,1.449,0.597,1.060,0.979,���k��,2.5,��
2016/10/02,13:10,1.139,1.888,1.350,2.066,1.450,0.599,1.060,0.978,��,2.9,��
2016/10/02,13:20,1.139,1.891,1.351,2.064,1.453,0.598,1.063,0.980,���k��,2.4,��
2016/10/02,13:30,1.137,1.890,1.355,2.064,1.450,0.600,1.061,0.979,���k��,2.5,��
2016/10/02,13:40,1.137,1.893,1.353,2.064,1.451,0.598,1.062,0.979,�k��,2.6,��
2016/10/02,13:50,1.137,1.890,1.352,2.065,1.451,0.599,1.064,0.979,���k��,2.8,��
2016/10/02,14:00,1.140,1.894,1.354,2.062,1.454,0.600,1.060,0.980,���k��,2.3,��
2016/10/02,14:10,1.138,1.892,1.353,2.062,1.454,0.599,1.063,0.980,��,2.8,��
2016/10/02,14:20,1.138,1.891,1.355,2.064,1.452,0.602,1.063,0.978,�k��,2.3,��
2016/10/02,14:30,1.139,1.893,1.352,2.063,1.453,0.601,1.064,0.980,���k��,2.4,��
2016/10/02,14:40,1.138,1.893,1.355,2.062,1.453,0.600,1.062,0.980,��,1.9,��
2016/10/02,14:50,1.139,1.893,1.357,2.065,1.453,0.600,1.062,0.981,���k��,1.7,��
2016/10/02,15:00,1.137,1.893,1.354,2.062,1.452,0.600,1.061,0.977,��,2.0,��
2016/10/02,15:10,1.139,1.892,1.354,2.066,1.451,0.600,1.062,0.979,���쓌,1.8,��
2016/10/02,15:20,1.137,1.892,1.356,2.066,1.453,0.600,1.063,0.979,���쓌,1.4,��
2016/10/02,15:30,1.138,1.892,1.356,2.065,1.454,0.599,1.060,0.980,�쓌,1.8,��
2016/10/02,15:40,1.138,1.892,1.355,2.064,1.454,0.602,1.062,0.980,��,2.5,��
2016/10/02,15:50,1.139,1.892,1.356,2.064,1.452,0.601,1.061,0.978,��쓌,2.8,��
2016/10/02,16:00,1.138,1.890,1.353,2.065,1.453,0.603,1.063,0.978,��쓌,2.5,��
2016/10/02,16:10,1.139,1.889,1.354,2.066,1.454,0.600,1.061,0.977,��쓌,1.7,��
2016/10/02,16:20,1.141,1.891,1.352,2.066,1.452,0.604,1.061,0.979,�쓌,2.3,��
2016/10/02,16:30,1.138,1.893,1.351,2.069,1.455,0.603,1.062,0.979,��쓌,2.5,��
2016/10/02,16:40,1.139,1.893,1.355,2.065,1.458,0.603,1.062,0.978,��쓌,2.4,��
2016/10/02,16:50,1.138,1.895,1.353,2.065,1.457,0.601,1.062,0.979,��쓌,2.6,��
2016/10/02,17:00,1.141,1.895,1.355,2.065,1.453,0.601,1.063,0.981,��쓌,2.5,��
2016/10/02,17:10,1.138,1.896,1.354,2.067,1.456,0.603,1.061,0.982,��쓌,1.8,��
2016/10/02,17:20,1.141,1.896,1.354,2.067,1.455,0.602,1.062,0.982,��쓌,1.7,��
2016/10/02,17:30,1.139,1.896,1.355,2.068,1.453,0.603,1.063,0.980,��,1.7,��
2016/10/02,17:40,1.140,1.894,1.357,2.063,1.457,0.601,1.063,0.983,��쓌,2.0,��
2016/10/02,17:50,1.140,1.895,1.356,2.065,1.454,0.603,1.064,0.981,��,1.9,��
2016/10/02,18:00,1.140,1.895,1.358,2.062,1.457,0.604,1.064,0.982,��쐼,0.5,��
2016/10/02,18:10,1.143,1.895,1.356,2.063,1.459,0.603,1.063,0.982,-,CALM,��
2016/10/02,18:20,1.140,1.894,1.356,2.062,1.457,0.602,1.063,0.980,��쐼,0.6,��
2016/10/02,18:30,1.140,1.895,1.354,2.064,1.457,0.603,1.065,0.982,��쓌,0.7,��
2016/10/02,18:40,1.138,1.893,1.356,2.062,1.457,0.602,1.064,0.980,��쓌,2.3,��
2016/10/02,18:50,1.141,1.893,1.356,2.066,1.452,0.600,1.062,0.983,��쓌,2.6,��
2016/10/02,19:00,1.140,1.894,1.357,2.069,1.453,0.601,1.062,0.981,��쓌,1.6,��
2016/10/02,19:10,1.141,1.894,1.355,2.067,1.455,0.603,1.064,0.981,��쓌,2.6,��
2016/10/02,19:20,1.141,1.893,1.356,2.065,1.453,0.601,1.062,0.982,�쓌,1.0,��
2016/10/02,19:30,1.139,1.893,1.355,2.063,1.456,0.605,1.060,0.980,���쓌,0.8,��
2016/10/02,19:40,1.139,1.894,1.354,2.066,1.455,0.602,1.062,0.983,-,CALM,��
2016/10/02,19:50,1.140,1.894,1.355,2.064,1.455,0.601,1.062,0.981,-,CALM,��
2016/10/02,20:00,1.140,1.893,1.355,2.063,1.458,0.603,1.061,0.982,��쓌,2.1,��
2016/10/02,20:10,1.139,1.894,1.354,2.063,1.455,0.601,1.062,0.982,��,3.3,��
2016/10/02,20:20,1.140,1.894,1.354,2.064,1.457,0.602,1.064,0.981,��,3.8,��
2016/10/02,20:30,1.141,1.892,1.354,2.063,1.457,0.601,1.063,0.981,��,4.1,��
2016/10/02,20:40,1.139,1.894,1.358,2.064,1.456,0.602,1.064,0.981,��,4.4,��
2016/10/02,20:50,1.141,1.894,1.352,2.062,1.453,0.602,1.063,0.980,��,3.6,��
2016/10/02,21:00,1.141,1.891,1.354,2.062,1.455,0.599,1.065,0.981,��쓌,0.8,��
2016/10/02,21:10,1.140,1.894,1.355,2.064,1.454,0.602,1.063,0.982,��,3.8,��
2016/10/02,21:20,1.139,1.892,1.357,2.065,1.454,0.602,1.064,0.981,��,3.5,��
2016/10/02,21:30,1.144,1.891,1.356,2.067,1.456,0.603,1.063,0.982,��,3.5,��
2016/10/02,21:40,1.139,1.891,1.355,2.063,1.454,0.602,1.062,0.983,��,3.8,��
2016/10/02,21:50,1.143,1.895,1.352,2.063,1.457,0.599,1.064,0.980,��쓌,3.4,��
2016/10/02,22:00,1.140,1.892,1.354,2.065,1.455,0.601,1.062,0.982,��,2.7,��
2016/10/02,22:10,1.141,1.890,1.355,2.065,1.456,0.602,1.063,0.982,��,3.4,��
2016/10/02,22:20,1.141,1.893,1.355,2.062,1.456,0.603,1.064,0.978,��,3.1,��
2016/10/02,22:30,1.140,1.892,1.352,2.064,1.453,0.601,1.063,0.980,��,3.9,��
2016/10/02,22:40,1.141,1.893,1.354,2.066,1.453,0.599,1.063,0.981,��쓌,4.1,��
2016/10/02,22:50,1.139,1.892,1.352,2.063,1.455,0.603,1.065,0.980,��,3.3,��
2016/10/02,23:00,1.141,1.890,1.355,2.065,1.454,0.601,1.061,0.980,��,3.8,��
2016/10/02,23:10,1.139,1.891,1.352,2.064,1.455,0.601,1.061,0.981,��,3.5,��
2016/10/02,23:20,1.141,1.885,1.352,2.061,1.453,0.601,1.063,0.981,��,4.1,��
2016/10/02,23:30,1.140,1.890,1.354,2.065,1.455,0.601,1.064,0.981,��,4.9,��
2016/10/02,23:40,1.142,1.895,1.351,2.065,1.451,0.605,1.065,0.980,��쓌,5.0,��
2016/10/02,23:50,1.139,1.891,1.353,2.065,1.455,0.602,1.062,0.980,��,4.5,��
